Regional Weather Roundup
Issued by NWS

Home | Current Version | Previous Version | Graphics & Text | Print | Product List | Glossary On
Versions: 1 2 3 4 5 6 7 8 9 10 11 12 13 14 15 16 17 18 19 20 21 22 23 24 25 26 27
000
ASUS45 KTFX 241810
RWRMT
MONTANA REGIONAL WEATHER ROUNDUP
NATIONAL WEATHER SERVICE GREAT FALLS MT
1200 PM MDT THU MAY 24 2018

NOTE: "FAIR" INDICATES FEW OR NO CLOUDS BELOW 12000 FEET WITH NO
SIGNIFICANT WEATHER AND/OR OBSTRUCTIONS TO VISIBILITY.

MTZ001>007-043-241900-
WEST OF THE DIVIDE

CITY           SKY/WX    TMP DP  RH WIND       PRES   REMARKS
KALISPELL      PTSUNNY   67  58  72 S12       29.94S
MISSOULA       PTSUNNY   66  55  67 CALM      29.99R
BUTTE          CLOUDY    64  44  48 NW7       30.06S
MULLAN PASS    PTSUNNY   54  49  83 CALM      30.09R
ANACONDA         N/A     66  45  45 W6        30.03R
DEER LODGE       N/A     64  52  63 NW9       30.03S
HAMILTON         N/A     70  46  43 MISG      30.00S
PLAINS           N/A     71  57  61 CALM      29.98R
RONAN            N/A     66  54  63 MISG      29.99R
$$

MTZ008-052>055-241900-
SOUTHWEST MONTANA

CITY           SKY/WX    TMP DP  RH WIND       PRES   REMARKS
BOZEMAN        FAIR      70  47  43 SW15G22   30.02R
DILLON         CLOUDY    62  48  60 SW20      30.08S
ENNIS          CLOUDY    61  46  59 SE17G23   30.13R
W YELLOWSTONE  CLOUDY    54  48  82 SW9G15    30.18R
TWIN BRIDGES     N/A     65  50  58 S12       30.04S
$$

MTZ009-010-012-014-046-048-049-054-241900-
EAST SLOPES AND CENTRAL MONTANA

CITY           SKY/WX    TMP DP  RH WIND       PRES   REMARKS
CUT BANK       FAIR      72  47  40 SW17G26   29.84S
GREAT FALLS    FAIR      76  46  34 SW22G33   29.87S
MALMSTROM AFB  FAIR      72  45  38 W17G25    29.88S
HELENA         PTSUNNY   74  47  38 W15G23    29.94S
BOWMANS CRNR   PTSUNNY   65  45  48 W14       29.91R
CHOTEAU          N/A     73  45  35 W9        29.89F
FAIRFIELD      PTSUNNY   71  48  43 W18G25    29.89R
POWER          FAIR      71  46  40 SW17      29.87S
RAYNESFORD     PTSUNNY   68  48  48 SW21G30   29.91R
ULM            FAIR      72  46  40 W22       29.90R
WHITE SULPHUR    N/A     66  48  52 SW15G22   29.99R
$$

MTZ011-013-016-021-045-047-050-051-241900-
NORTH CENTRAL MONTANA

CITY           SKY/WX    TMP DP  RH WIND       PRES   REMARKS
HAVRE          FAIR      73  53  49 SW15      29.80S
LEWISTOWN      CLOUDY    71  49  45 W9        29.90S
N BAR RANCH    FAIR      70  46  43 NW22      29.93F
DENTON         FAIR      71  50  46 W15G25    29.85R
GEYSER         FAIR      69  46  43 W24G32    29.89S
GRASS RANGE    FAIR      70  51  50 W15G30    29.86R
JUDITH GAP     FAIR      69  48  46 W15       29.94S
ROY            FAIR      70  53  54 W12       29.86S
STANFORD       FAIR      68  47  46 W13       29.91S
WINIFRED       FAIR      70  52  52 NW16      29.87S
$$

MTZ017>020-022>027-061-062-241900-
NORTHEAST MONTANA

CITY           SKY/WX    TMP DP  RH WIND       PRES   REMARKS
GLASGOW        FAIR      75  56  51 W13       29.79S
GLENDIVE       PTSUNNY   68  59  73 W14       29.84S
JORDAN           N/A     72  57  59 W15       29.83S
MALTA          SUNNY     75  54  46 W8G15     29.78R
SIDNEY         PTSUNNY   73  59  61 SW17      29.78F
WOLF POINT     PTSUNNY   74  61  63 W10       29.79R
PLENTYWOOD       N/A     64  64 100 N8        29.77R
POPLAR           N/A     72  59  64 MISG      29.78S
SCOBEY           N/A     68  55  62 E6        29.79S
$$

MTZ028>42-056>058-241900-
SOUTHCENTRAL AND SOUTHEAST MONTANA

CITY           SKY/WX    TMP DP  RH WIND       PRES   REMARKS
BAKER          FAIR      72  58  61 W22G29    29.88S
BILLINGS       FAIR      72  52  49 SW17G25   29.93R
LIVINGSTON     FAIR      70  50  49 SW24G35   29.99R
MILES CITY     FAIR      73  58  59 W15G21    29.86S
BIG TIMBER     SUNNY     70  48  46 W26G33    29.98S
EKALAKA          N/A     70  53  54 W12       29.90S
FORSYTH          N/A     72  54  53 MISG      29.86S
HARLOWTON      PTSUNNY   69  47  45 W30G37    29.93F
LAUREL           N/A     72  54  53 SW13G23   29.95R
$$

REGIONAL REPORTS...DAKOTAS

CITY           SKY/WX    TMP DP  RH WIND       PRES   REMARKS
WILLISTON      PTSUNNY   74  60  61 W13       29.77S
MINOT          FAIR      83  52  34 S12       29.73S
DICKINSON      FAIR      76  53  44 W21       29.81S
BEACH          FAIR      68  61  77 W15G25    29.88R
CROSBY         FAIR      72  64  78 W9        29.75S
TIOGA          PTSUNNY   73  57  56 W13G20    29.77F
WATFORD CITY   FAIR      75  57  53 SW15G22   29.77S
BISMARCK       FAIR      79  58  48 S9        29.78F
GRAND FORKS    PTSUNNY   83  61  47 S13       29.77F
FARGO          FAIR      78  64  61 S13       29.84F
BUFFALO SD       N/A     74  52  46 W21       29.83S
RAPID CITY     FAIR      76  53  44 NE8       29.93R
$$

REGIONAL REPORTS...WYOMING/IDAHO/WASHINGTON

CITY           SKY/WX    TMP DP  RH WIND       PRES   REMARKS
GILLETTE       FAIR      73  45  36 W10       29.98S
SHERIDAN       FAIR      78  52  40 NE5       29.95S
BUFFALO WY     FAIR      74  44  34 SE9       30.01S
CODY           FAIR      69  44  40 W15G25    30.05R
IDAHO FALLS    FAIR      68  52  56 SW17      30.13S
SALMON         CLOUDY    60  54  80 SW3       30.10F
BOISE          FAIR      74  52  46 NW5       30.04S
SPOKANE        FAIR      70  56  61 S8        29.96R
$$

REGIONAL REPORTS...ALBERTA

CITY           SKY/WX    TMP DP  RH WIND       PRES   REMARKS
CALGARY        MOSUNNY   77  36  22 W13G22    29.73S
CARDSTON         N/A     73  45  35 SW14G22     N/A
EDMONTON       PTSUNNY   73  50  43 SE9       29.69R
FORT MCMURRAY  MOSUNNY   81  52  36 NE3       29.67F
HIGH LEVEL     MOSUNNY   77  39  25 SE14      29.64S
LETHBRIDGE     MOSUNNY   79  46  31 W21G26    29.74F
LLOYDMINSTER   LGT RAIN  59  57  94 NW5       29.74R FOG
MEDICINE HAT   MOSUNNY   81  46  30 SW18      29.71F
MILK RIVER       N/A     77  46  33 W10G20      N/A
ONEFOUR          N/A     73  46  38 W5          N/A
PEACE RIVER    PTSUNNY   77  46  33 SW8       29.65S
PINCHER CREEK    N/A     73  45  35 W24       29.82S
WATERTON GATE    N/A     68  45  42 SW18G25     N/A
$$

REGIONAL REPORTS...SASKATCHEWAN

CITY           SKY/WX    TMP DP  RH WIND       PRES   REMARKS
CORONACH         N/A     68  57  68 W9          N/A
CYPRESS HILLS    N/A     70  45  40 SW9         N/A
ESTEVAN        PTSUNNY   75  57  53 SW9       29.73S
MOOSE JAW        N/A     68  59  73 W5          N/A
PRINCE ALBERT  CLOUDY    73  57  56 SE7       29.73F
REGINA         PTSUNNY   68  59  73 W8        29.73S
ROCKGLEN         N/A     68  55  64 W8          N/A
SASKATOON      PTSUNNY   72  59  64 SE3       29.73S
SWIFT CURRENT  SUNNY     72  52  49 VRB5      29.74F
VAL MARIE        N/A     75  46  35 W13G18      N/A
$$




USA.gov is the U.S. government's official web portal to all federal, state and local government web resources and services.